When you browse on this site, cookies collect data to enhance your experience and personalize the content and advertising you see.
Visit our Privacy Policy to learn more. By continuing to use the site, you agree to this use of cookies and data.
  • In Portugal
  • List of Countries
  • For 7 days
  • Water Temperature
  • Satellite Maps
  • Weather Map
  • Weather Widgets
  • user-avatar
    Login

    Hourly Weather Killarney

    Today, 19 January, Saturday

    Time Temperature Precipitation Wind Pressure Humidity
    00:00 +6°C° 0 mm 2 mps 749 mmHg 93%
    01:00 +6°C° 0 mm 2 mps 749 mmHg 94%
    02:00 +6°C° 0 mm 2 mps 749 mmHg 94%
    03:00 +6°C° 0 mm 2 mps 749 mmHg 95%
    04:00 +6°C° 0 mm 2 mps 749 mmHg 95%
    05:00 +6°C° 0 mm 2 mps 749 mmHg 95%
    06:00 +6°C° 0 mm 2 mps 750 mmHg 95%
    07:00 +6°C° 0 mm 2 mps 750 mmHg 95%
    08:00 +6°C° 0 mm 2 mps 750 mmHg 95%
    09:00 +8°C° 0 mm 2 mps 750 mmHg 91%
    10:00 +9°C° 0 mm 2 mps 750 mmHg 88%
    11:00 +10°C° 0 mm 2 mps 751 mmHg 84%
    12:00 +10°C° 0 mm 3 mps 751 mmHg 83%
    13:00 +10°C° 0 mm 3 mps 751 mmHg 83%
    14:00 +10°C° 0 mm 3 mps 751 mmHg 82%
    15:00 +9°C° 0 mm 3 mps 751 mmHg 87%
    16:00 +8°C° 0 mm 2 mps 752 mmHg 91%
    17:00 +7°C° 0 mm 2 mps 752 mmHg 96%
    18:00 +7°C° 0 mm 2 mps 753 mmHg 96%
    19:00 +7°C° 0 mm 2 mps 754 mmHg 96%
    20:00 +7°C° 0 mm 2 mps 754 mmHg 96%
    21:00 +7°C° 0.2 mm 3 mps 755 mmHg 96%
    22:00 +7°C° 0.2 mm 4 mps 756 mmHg 95%
    23:00 +7°C° 0.2 mm 5 mps 756 mmHg 94%

    Tomorrow, 20 January, Sunday

    Time Temperature Precipitation Wind Pressure Humidity
    00:00 +7°C° 0.6 mm 6 mps 757 mmHg 91%
    01:00 +6°C° 0.6 mm 7 mps 757 mmHg 89%
    02:00 +5°C° 0.6 mm 9 mps 758 mmHg 86%
    03:00 +5°C° 0.2 mm 8 mps 759 mmHg 86%
    04:00 +5°C° 0.2 mm 8 mps 760 mmHg 85%
    05:00 +4°C° 0.2 mm 8 mps 760 mmHg 84%
    06:00 +4°C° 0.1 mm 7 mps 761 mmHg 84%
    07:00 +4°C° 0.1 mm 7 mps 762 mmHg 83%
    08:00 +3°C° 0.1 mm 6 mps 763 mmHg 82%
    09:00 +4°C° 0 mm 6 mps 764 mmHg 79%
    10:00 +4°C° 0 mm 6 mps 765 mmHg 76%
    11:00 +4°C° 0 mm 7 mps 766 mmHg 72%
    12:00 +4°C° 0 mm 6 mps 766 mmHg 71%
    13:00 +4°C° 0 mm 6 mps 766 mmHg 70%
    14:00 +5°C° 0 mm 5 mps 766 mmHg 69%
    15:00 +5°C° 0 mm 4 mps 767 mmHg 73%
    16:00 +4°C° 0 mm 3 mps 767 mmHg 78%
    17:00 +4°C° 0 mm 2 mps 768 mmHg 82%
    18:00 +3°C° 0 mm 2 mps 768 mmHg 83%
    19:00 +4°C° 0 mm 1 mps 769 mmHg 83%
    20:00 +4°C° 0 mm 1 mps 769 mmHg 84%
    21:00 +3°C° 0 mm 1 mps 769 mmHg 84%
    22:00 +3°C° 0 mm 1 mps 769 mmHg 84%
    23:00 +2°C° 0 mm 0 mps 769 mmHg 84%

    Day after tomorrow, 21 January, Monday

    Time Temperature Precipitation Wind Pressure Humidity
    00:00 +3°C° 0 mm 1 mps 768 mmHg 84%
    01:00 +3°C° 0 mm 1 mps 768 mmHg 84%
    02:00 +3°C° 0 mm 1 mps 768 mmHg 84%
    03:00 +2°C° 0 mm 2 mps 767 mmHg 84%
    04:00 +2°C° 0 mm 2 mps 766 mmHg 84%
    05:00 +2°C° 0 mm 2 mps 765 mmHg 83%
    06:00 +2°C° 0 mm 3 mps 765 mmHg 83%
    07:00 +3°C° 0 mm 3 mps 764 mmHg 83%
    08:00 +3°C° 0 mm 4 mps 763 mmHg 82%
    09:00 +3°C° 0 mm 5 mps 762 mmHg 80%
    10:00 +4°C° 0 mm 7 mps 760 mmHg 78%
    11:00 +5°C° 0 mm 9 mps 759 mmHg 75%
    12:00 +5°C° 0.9 mm 9 mps 757 mmHg 79%
    13:00 +5°C° 0.9 mm 9 mps 755 mmHg 83%
    14:00 +5°C° 0.9 mm 10 mps 753 mmHg 87%
    15:00 +3°C° 2.1 mm 9 mps 753 mmHg 83%
    16:00 +2°C° 2.1 mm 8 mps 753 mmHg 79%
    17:00 +2°C° 2.1 mm 7 mps 753 mmHg 75%
    18:00 +2°C° 0.1 mm 7 mps 754 mmHg 74%
    19:00 0°C° 0.1 mm 7 mps 754 mmHg 73%
    20:00 0°C° 0.1 mm 7 mps 755 mmHg 72%
    21:00 0°C° 0.3 mm 7 mps 754 mmHg 72%
    22:00 0°C° 0.3 mm 7 mps 754 mmHg 73%
    23:00 0°C° 0.3 mm 7 mps 754 mmHg 73%

    22 January, Tuesday

    Time Temperature Precipitation Wind Pressure Humidity
    00:00 0°C° 0.5 mm 7 mps 754 mmHg 74%
    01:00 0°C° 0.5 mm 7 mps 753 mmHg 75%
    02:00 0°C° 0.5 mm 8 mps 753 mmHg 76%
    03:00 0°C° 0.5 mm 8 mps 753 mmHg 77%
    04:00 0°C° 0.5 mm 8 mps 752 mmHg 77%
    05:00 0°C° 0.5 mm 8 mps 752 mmHg 78%
    06:00 -1°C° 0.4 mm 8 mps 752 mmHg 77%
    07:00 -1°C° 0.4 mm 8 mps 753 mmHg 76%
    08:00 -1°C° 0.4 mm 8 mps 753 mmHg 76%
    09:00 -1°C° 0.4 mm 8 mps 753 mmHg 76%
    10:00 0°C° 0.4 mm 8 mps 754 mmHg 76%
    11:00 0°C° 0.4 mm 8 mps 754 mmHg 76%
    12:00 0°C° 0.3 mm 8 mps 754 mmHg 76%
    13:00 0°C° 0.3 mm 8 mps 754 mmHg 77%
    14:00 0°C° 0.3 mm 8 mps 754 mmHg 77%
    15:00 0°C° 0.2 mm 7 mps 754 mmHg 79%
    16:00 0°C° 0.2 mm 7 mps 755 mmHg 81%
    17:00 +1°C° 0.2 mm 6 mps 755 mmHg 83%
    18:00 +1°C° 0.3 mm 5 mps 755 mmHg 85%
    19:00 +1°C° 0.3 mm 5 mps 755 mmHg 87%
    20:00 +1°C° 0.3 mm 4 mps 755 mmHg 89%
    21:00 +1°C° 0.2 mm 4 mps 755 mmHg 89%
    22:00 +1°C° 0.2 mm 4 mps 755 mmHg 90%
    23:00 +2°C° 0.2 mm 3 mps 755 mmHg 90%

    23 January, Wednesday

    Time Temperature Precipitation Wind Pressure Humidity
    00:00 +2°C° 0.1 mm 3 mps 755 mmHg 91%
    01:00 +2°C° 0.1 mm 3 mps 755 mmHg 91%
    02:00 +3°C° 0.1 mm 3 mps 755 mmHg 91%
    03:00 +3°C° 0.1 mm 3 mps 755 mmHg 92%
    04:00 +2°C° 0.1 mm 3 mps 755 mmHg 92%
    05:00 +2°C° 0.1 mm 3 mps 755 mmHg 93%
    06:00 +3°C° 0.1 mm 3 mps 755 mmHg 93%
    07:00 +4°C° 0.1 mm 2 mps 756 mmHg 93%
    08:00 +4°C° 0.1 mm 2 mps 756 mmHg 94%
    09:00 +3°C° 0 mm 3 mps 756 mmHg 93%
    10:00 +4°C° 0 mm 3 mps 756 mmHg 92%
    11:00 +4°C° 0 mm 3 mps 757 mmHg 91%
    12:00 +4°C° 0 mm 3 mps 757 mmHg 90%
    13:00 +4°C° 0 mm 4 mps 757 mmHg 88%
    14:00 +4°C° 0 mm 4 mps 757 mmHg 87%
    15:00 +4°C° 0 mm 4 mps 757 mmHg 87%
    16:00 +3°C° 0 mm 3 mps 757 mmHg 88%
    17:00 +3°C° 0 mm 3 mps 758 mmHg 88%
    18:00 +2°C° 0 mm 3 mps 758 mmHg 88%
    19:00 +2°C° 0 mm 3 mps 759 mmHg 88%
    20:00 +2°C° 0 mm 2 mps 759 mmHg 89%
    21:00 +2°C° 0 mm 2 mps 760 mmHg 88%
    22:00 +2°C° 0 mm 2 mps 760 mmHg 88%
    23:00 +2°C° 0 mm 2 mps 760 mmHg 88%

    24 January, Thursday

    Time Temperature Precipitation Wind Pressure Humidity
    00:00 +2°C° 0 mm 2 mps 761 mmHg 88%
    01:00 +3°C° 0 mm 1 mps 761 mmHg 89%
    02:00 +2°C° 0 mm 1 mps 761 mmHg 89%
    03:00 +2°C° 0 mm 1 mps 761 mmHg 90%
    04:00 +2°C° 0 mm 1 mps 762 mmHg 91%
    05:00 +2°C° 0 mm 1 mps 762 mmHg 92%
    06:00 +2°C° 0 mm 1 mps 763 mmHg 91%
    07:00 +2°C° 0 mm 1 mps 763 mmHg 91%
    08:00 +2°C° 0 mm 1 mps 764 mmHg 91%
    09:00 +3°C° 0 mm 1 mps 764 mmHg 87%
    10:00 +3°C° 0 mm 0 mps 764 mmHg 82%
    11:00 +5°C° 0 mm 0 mps 764 mmHg 78%
    12:00 +6°C° 0 mm 1 mps 764 mmHg 78%
    13:00 +7°C° 0 mm 1 mps 764 mmHg 79%
    14:00 +7°C° 0 mm 1 mps 764 mmHg 79%
    15:00 +6°C° 0 mm 1 mps 764 mmHg 82%
    16:00 +5°C° 0 mm 1 mps 764 mmHg 85%
    17:00 +4°C° 0 mm 1 mps 764 mmHg 88%
    18:00 +4°C° 0 mm 1 mps 764 mmHg 89%
    19:00 +4°C° 0 mm 1 mps 765 mmHg 90%
    20:00 +5°C° 0 mm 1 mps 765 mmHg 90%
    21:00 +5°C° 0 mm 1 mps 765 mmHg 91%
    22:00 +5°C° 0 mm 1 mps 765 mmHg 91%
    23:00 +5°C° 0 mm 1 mps 765 mmHg 92%
    Show more